Latest Coastal Weather Observations for Double Island Point

IDQ60701

Issued at 9:51 am EST Wednesday 23 October 2019 (issued every 10 minutes, with the page automatically refreshed every 10 minutes)

About coastal observations | Map of coastal stations | Coastal observations for QLD | Marine services | Other Formats
Station Details ID: 040068 Name: DOUBLE ISLAND POINT LIGHTHOUSE Lat: -25.93 Lon: 153.19 Height: 95.64 m
Data from the previous 72 hours. | See also: Recent months at Double Island Point
Date/Time
EST
Wind Sea
Height
m
Swell Vis
km
Cloud Weather Temp
°C
Press
hPa
Rain since
9am
mm
Dir  Spd
kts
Gust
kts
Height
m
Period
s
Dir
23/09:30am SSE 14 16 - - - - - - - 22.8 1023.7 0.0
23/09:00am SE 14 16 - - - - - - - 22.9 1023.7 0.0
23/08:30am SE 12 14 - - - - - - - 23.2 1023.6 0.0
23/08:00am SE 12 16 - - - - - - - 23.2 1023.3 0.0
23/07:30am ESE 13 16 - - - - - - - 22.0 1023.0 0.0
23/07:00am SE 13 17 - - - - - - - 22.0 1022.9 0.0
23/06:30am SE 13 16 - - - - - - - 21.4 1022.6 0.0
23/06:00am SE 11 14 - - - - - - - 20.9 1022.6 0.0
23/05:30am ESE 12 16 - - - - - - - 19.8 1022.4 0.0
23/05:00am ESE 12 15 - - - - - - - 19.7 1022.0 0.0
23/04:30am ESE 12 15 - - - - - - - 19.6 1021.7 0.0
23/04:00am SE 13 15 - - - - - - - 19.8 1021.6 0.0
23/03:30am SE 13 16 - - - - - - - 19.7 1021.6 0.0
23/03:00am SE 13 16 - - - - - - - 19.9 1021.5 0.0
23/02:30am SE 12 16 - - - - - - - 19.8 1021.7 0.0
23/02:00am SE 13 16 - - - - - - - 19.8 1021.8 0.0
23/01:30am ESE 15 18 - - - - - - - 19.9 1022.0 0.0
23/01:00am ESE 15 19 - - - - - - - 20.0 1022.3 0.0
23/12:30am ESE 15 18 - - - - - - - 20.0 1022.4 0.0
23/12:00am ESE 17 20 - - - - - - - 20.2 1022.7 0.0
 
Date/Time
EST
Wind Sea
Height
m
Swell Vis
km
Cloud Weather Temp
°C
Press
hPa
Rain since
9am
mm
Dir  Spd
kts
Gust
kts
Height
m
Period
s
Dir
22/11:30pm ESE 17 21 - - - - - - - 20.2 1023.0 0.0
22/11:00pm ESE 17 21 - - - - - - - 20.2 1023.3 0.0
22/10:30pm ESE 19 23 - - - - - - - 20.2 1023.4 0.0
22/10:00pm ESE 20 23 - - - - - - - 20.3 1023.3 0.0
22/09:30pm ESE 19 22 - - - - - - - 20.2 1023.4 0.0
22/09:00pm ESE 18 21 - - - - - - - 20.3 1023.6 0.0
22/08:30pm ESE 18 21 - - - - - - - 20.4 1023.6 0.0
22/08:00pm ESE 16 19 - - - - - - - 20.3 1023.5 0.0
22/07:30pm ESE 18 21 - - - - - - - 20.3 1023.0 0.0
22/07:00pm SE 17 20 - - - - - - - 20.3 1023.0 0.0
22/06:30pm SE 16 19 - - - - - - - 20.3 1022.7 0.0
22/06:00pm SE 18 21 - - - - - - - 20.4 1022.2 0.0
22/05:30pm SE 17 20 - - - - - - - 20.5 1021.9 0.0
22/05:00pm SE 16 20 - - - - - - - 20.7 1021.6 0.0
22/04:30pm SE 15 18 - - - - - - - 21.0 1021.5 0.0
22/04:00pm SE 16 19 - - - - - - - 21.3 1021.4 0.0
22/03:30pm SE 16 18 - - - - - - - 21.7 1021.4 0.0
22/03:00pm SSE 17 20 - - - - - - - 21.7 1021.3 0.0
22/02:30pm SSE 16 19 - - - - - - - 22.1 1021.5 0.0
22/02:00pm SSE 15 19 - - - - - - - 22.4 1021.8 0.0
22/01:30pm SSE 14 16 - - - - - - - 22.7 1022.2 0.0
22/01:00pm SSE 14 17 - - - - - - - 22.9 1022.4 0.0
22/12:30pm SSE 13 16 - - - - - - - 23.0 1022.8 0.0
22/12:00pm SSE 13 16 - - - - - - - 23.1 1023.0 0.0
22/11:30am SSE 13 15 - - - - - - - 23.0 1023.2 0.0
22/11:00am SE 14 17 - - - - - - - 22.6 1023.5 0.0
22/10:30am SSE 13 16 - - - - - - - 23.3 1023.7 0.0
22/10:00am SSE 13 16 - - - - - - - 23.0 1024.0 0.0
22/09:30am SSE 11 14 - - - - - - - 23.0 1024.2 0.0
22/09:00am SE 12 14 - - - - - - - 22.9 1024.3 0.0
22/08:30am SE 11 14 - - - - - - - 22.8 1024.2 0.0
22/08:00am SE 13 16 - - - - - - - 22.3 1023.9 0.0
22/07:30am SE 14 17 - - - - - - - 21.8 1023.6 0.0
22/07:00am SE 13 16 - - - - - - - 21.5 1023.4 0.0
22/06:30am SE 14 17 - - - - - - - 20.9 1023.3 0.0
22/06:00am ESE 13 15 - - - - - - - 20.4 1023.1 0.0
22/05:30am SE 15 19 - - - - - - - 19.6 1022.6 0.0
22/05:00am SE 15 18 - - - - - - - 19.5 1022.4 0.0
22/04:30am SE 15 18 - - - - - - - 19.4 1022.2 0.0
22/04:00am SE 15 18 - - - - - - - 19.3 1022.1 0.0
22/03:30am SE 15 18 - - - - - - - 19.3 1022.0 0.0
22/03:00am SE 16 20 - - - - - - - 19.3 1021.9 0.0
22/02:30am SE 15 19 - - - - - - - 19.3 1022.2 0.0
22/02:00am SE 15 19 - - - - - - - 19.3 1022.3 0.0
22/01:30am SE 17 22 - - - - - - - 19.4 1022.6 0.0
22/01:00am SE 15 19 - - - - - - - 19.4 1023.0 0.0
22/12:30am ESE 17 19 - - - - - - - 19.5 1023.2 0.0
22/12:00am SE 17 20 - - - - - - - 19.6 1023.4 0.0
 
Date/Time
EST
Wind Sea
Height
m
Swell Vis
km
Cloud Weather Temp
°C
Press
hPa
Rain since
9am
mm
Dir  Spd
kts
Gust
kts
Height
m
Period
s
Dir
21/11:30pm SE 19 22 - - - - - - - 19.7 1023.7 0.0
21/11:00pm SE 20 24 - - - - - - - 19.8 1023.8 0.0
21/10:30pm ESE 22 25 - - - - - - - 19.8 1024.0 0.0
21/10:00pm ESE 22 27 - - - - - - - 19.9 1023.8 0.0
21/09:30pm SE 23 27 - - - - - - - 19.9 1023.8 0.0
21/09:00pm SE 23 29 - - - - - - - 19.9 1023.8 0.0
21/08:30pm SE 23 29 - - - - - - - 20.0 1023.7 0.0
21/08:00pm SE 25 30 - - - - - - - 19.9 1023.6 0.0
21/07:30pm SE 26 30 - - - - - - - 19.9 1023.4 0.0
21/07:00pm SE 24 27 - - - - - - - 19.9 1023.3 0.0
21/06:30pm SE 25 29 - - - - - - - 19.9 1022.8 0.0
21/06:00pm SE 25 29 - - - - - - - 20.0 1022.5 0.0
21/05:30pm SE 27 30 - - - - - - - 20.1 1022.0 0.0
21/05:00pm SSE 27 32 - - - - - - - 20.3 1021.6 0.0
21/04:30pm SSE 25 29 - - - - - - - 20.5 1021.6 0.0
21/04:00pm SSE 25 29 - - - - - - - 20.8 1021.6 0.0
21/03:30pm SSE 24 28 - - - - - - - 21.2 1021.5 0.0
21/03:00pm SSE 23 27 - - - - - - - 21.3 1021.5 0.0
21/02:30pm SSE 22 26 - - - - - - - 21.6 1021.7 0.0
21/02:00pm SSE 22 27 - - - - - - - 21.9 1021.8 0.0
21/01:30pm SSE 23 25 - - - - - - - 21.9 1022.1 0.0
21/01:00pm SSE 23 25 - - - - - - - 22.3 1022.3 0.0
21/12:30pm SSE 23 27 - - - - - - - 22.0 1022.3 0.0
21/12:00pm SSE 23 28 - - - - - - - 22.3 1022.5 0.0
21/11:30am SSE 25 28 - - - - - - - 22.1 1022.8 0.0
21/11:00am SSE 24 27 - - - - - - - 22.2 1022.8 0.0
21/10:30am SE 25 28 - - - - - - - 22.2 1023.0 0.0
21/10:00am SE 25 29 - - - - - - - 22.4 1023.2 0.0
21/09:30am SE 25 29 - - - - - - - 22.3 1023.1 0.0
21/09:00am SE 27 31 - - - - - - - 22.0 1023.0 0.0
21/08:30am SE 28 31 - - - - - - - 21.9 1022.7 0.0
21/08:00am SE 26 30 - - - - - - - 21.5 1022.4 0.0
21/07:30am SE 25 30 - - - - - - - 21.9 1022.2 0.0
21/07:00am SE 24 29 - - - - - - - 21.8 1022.0 0.0
21/06:30am SE 25 29 - - - - - - - 21.3 1021.6 0.0
21/06:00am SE 26 30 - - - - - - - 20.9 1021.2 0.0
21/05:30am SE 27 31 - - - - - - - 20.6 1021.0 0.0
21/05:00am SE 25 30 - - - - - - - 20.5 1020.6 0.0
21/04:30am SE 26 30 - - - - - - - 20.5 1020.1 0.0
21/04:00am SE 28 32 - - - - - - - 20.5 1019.8 0.0
21/03:30am SE 26 30 - - - - - - - 20.6 1019.6 0.0
21/03:00am SE 25 29 - - - - - - - 20.6 1019.7 0.0
21/02:30am SE 24 27 - - - - - - - 20.7 1019.8 0.0
21/02:00am SE 26 30 - - - - - - - 20.6 1019.8 0.0
21/01:30am SE 27 30 - - - - - - - 20.7 1019.7 0.0
21/01:00am SE 28 31 - - - - - - - 20.8 1019.9 0.0
21/12:30am SE 28 32 - - - - - - - 20.8 1020.0 0.0
21/12:00am SE 28 32 - - - - - - - 20.8 1020.2 0.0
 
Date/Time
EST
Wind Sea
Height
m
Swell Vis
km
Cloud Weather Temp
°C
Press
hPa
Rain since
9am
mm
Dir  Spd
kts
Gust
kts
Height
m
Period
s
Dir
20/11:30pm SE 27 30 - - - - - - - 20.9 1020.1 0.0
20/11:00pm SSE 26 30 - - - - - - - 20.9 1020.1 0.0
20/10:30pm SSE 27 31 - - - - - - - 20.9 1020.0 0.0
20/10:00pm SSE 25 29 - - - - - - - 21.0 1020.0 0.0
20/09:30pm SSE 26 30 - - - - - - - 21.0 1019.7 0.0
20/09:00pm SSE 27 30 - - - - - - - 21.1 1019.3 0.0
20/08:30pm SSE 27 31 - - - - - - - 21.2 1019.2 0.0
20/08:00pm SSE 26 29 - - - - - - - 21.3 1019.0 0.0
20/07:30pm SE 26 29 - - - - - - - 21.4 1018.5 0.0
20/07:00pm SE 25 29 - - - - - - - 21.3 1018.1 0.0
20/06:30pm SE 27 31 - - - - - - - 21.3 1017.6 0.0
20/06:00pm SE 26 30 - - - - - - - 21.5 1017.2 0.0
20/05:30pm SE 27 30 - - - - - - - 21.6 1016.7 0.0
20/05:00pm SE 26 30 - - - - - - - 21.8 1016.2 0.0
20/04:30pm SE 26 31 - - - - - - - 22.0 1015.8 0.0
20/04:00pm SSE 25 30 - - - - - - - 22.4 1015.7 0.0
20/03:30pm SSE 24 28 - - - - - - - 22.6 1015.4 0.0
20/03:00pm SSE 25 30 - - - - - - - 22.4 1015.4 0.0
20/02:30pm SSE 26 30 - - - - - - - 22.5 1015.6 0.0
20/02:00pm SSE 25 29 - - - - - - - 22.6 1015.7 0.0
20/01:30pm SSE 24 28 - - - - - - - 22.6 1015.9 0.0
20/01:00pm SSE 25 29 - - - - - - - 22.5 1016.0 0.0
20/12:30pm SSE 24 29 - - - - - - - 22.7 1016.2 0.0
20/12:00pm SSE 21 26 - - - - - - - 22.6 1016.4 0.0
20/11:30am SSE 21 25 - - - - - - - 23.3 1016.4 0.0
20/11:00am SSE 23 33 - - - - - - - 24.1 1016.0 0.0
20/10:51am SSE 12 22 - - - - - - - 25.1 1016.1 0.0
20/10:30am SSE 7 9 - - - - - - - 25.1 1016.1 0.0
20/10:00am S 7 9 - - - - - - - 26.1 1016.3 0.0

Other formats

Comma delimited format used in spreadsheet applications
http://www.bom.gov.au/fwo/IDQ60701/IDQ60701.94584.axf

JavaScript Object Notation format (JSON) in row-major order
http://www.bom.gov.au/fwo/IDQ60701/IDQ60701.94584.json

Data quality

Most of these data are generated automatically and are frequently updated. Quality checks on data are not normally performed. It is possible for incorrect values to appear. Refer to information at About Latest Weather Observations and please check the disclaimer before using these data.